Time,TemperatureF,DewpointF,PressureIn,WindDirection,WindDirectionDegrees,WindSpeedMPH,WindSpeedGustMPH,Humidity,HourlyPrecipIn,Conditions,Clouds,dailyrainin,SoftwareType,DateUTC
2013-04-15 00:03:00,33.0,-99.9,30.47,SE,142,2.0,2.0,-999,-99.99,,,-99.99,,2013-04-15 08:03:00,
2013-04-15 00:14:00,33.0,-99.9,30.47,SSE,154,-999.0,1.0,-999,-99.99,,,-99.99,,2013-04-15 08:14:00,
2013-04-15 00:23:00,33.0,-99.9,30.46,NNE,20,2.0,2.0,-999,-99.99,,,-99.99,,2013-04-15 08:23:00,
2013-04-15 00:34:00,33.0,-99.9,30.46,ENE,77,1.0,3.0,-999,-99.99,,,-99.99,,2013-04-15 08:34:00,
2013-04-15 00:43:00,33.0,-99.9,30.46,SSE,159,1.0,2.0,-999,-99.99,,,-99.99,,2013-04-15 08:43:00,
2013-04-15 01:03:00,-999.0,-99.9,30.45,NNW,344,0.0,1.0,-999,-99.99,,,-99.99,,2013-04-15 09:03:00,
2013-04-15 01:13:00,-999.0,-99.9,30.45,ENE,58,0.0,2.0,-999,-99.99,,,-99.99,,2013-04-15 09:13:00,
2013-04-15 01:23:00,-999.0,-99.9,30.45,SSE,158,4.0,4.0,-999,-99.99,,,-99.99,,2013-04-15 09:23:00,
2013-04-15 01:33:00,32.0,-99.9,30.45,SSE,150,4.0,4.0,-999,-99.99,,,-99.99,,2013-04-15 09:33:00,
2013-04-15 01:43:00,-999.0,-99.9,30.45,South,175,4.0,5.0,-999,-99.99,,,-99.99,,2013-04-15 09:43:00,
2013-04-15 01:53:00,-999.0,-99.9,30.45,South,187,3.0,4.0,-999,-99.99,,,-99.99,,2013-04-15 09:53:00,
2013-04-15 02:03:00,-999.0,-99.9,30.44,South,176,7.0,8.0,-999,-99.99,,,-99.99,,2013-04-15 10:03:00,
2013-04-15 02:13:00,-999.0,-99.9,30.43,SSE,151,4.0,5.0,-999,-99.99,,,-99.99,,2013-04-15 10:13:00,
2013-04-15 02:23:00,-999.0,-99.9,30.43,South,182,2.0,4.0,-999,-99.99,,,-99.99,,2013-04-15 10:23:00,
2013-04-15 02:33:00,32.0,-99.9,30.43,SSE,156,1.0,2.0,-999,-99.99,,,-99.99,,2013-04-15 10:33:00,
2013-04-15 02:42:00,-999.0,-99.9,30.43,South,182,2.0,3.0,-999,-99.99,,,-99.99,,2013-04-15 10:42:00,
2013-04-15 02:53:00,-999.0,-99.9,30.42,SSE,153,4.0,5.0,-999,-99.99,,,-99.99,,2013-04-15 10:53:00,
2013-04-15 03:03:00,31.0,-99.9,30.42,SSE,155,4.0,5.0,-999,-99.99,,,-99.99,,2013-04-15 11:03:00,
2013-04-15 03:13:00,-999.0,-99.9,30.42,SSE,153,4.0,4.0,-999,-99.99,,,-99.99,,2013-04-15 11:13:00,
2013-04-15 03:23:00,-999.0,-99.9,30.42,SE,144,3.0,5.0,-999,-99.99,,,-99.99,,2013-04-15 11:23:00,
2013-04-15 03:33:00,31.0,-99.9,30.42,SSE,155,2.0,4.0,-999,-99.99,,,-99.99,,2013-04-15 11:33:00,
2013-04-15 03:44:00,-999.0,-99.9,30.42,South,171,4.0,4.0,-999,-99.99,,,-99.99,,2013-04-15 11:44:00,
2013-04-15 03:54:00,-999.0,-99.9,30.41,SE,130,2.0,3.0,-999,-99.99,,,-99.99,,2013-04-15 11:54:00,
2013-04-15 04:05:00,32.0,-99.9,30.41,SSE,152,2.0,3.0,-999,-99.99,,,-99.99,,2013-04-15 12:05:00,
2013-04-15 04:14:00,-999.0,-99.9,30.41,South,180,3.0,4.0,-999,-99.99,,,-99.99,,2013-04-15 12:14:00,
2013-04-15 04:23:00,-999.0,-99.9,30.41,SSE,163,3.0,5.0,-999,-99.99,,,-99.99,,2013-04-15 12:23:00,
2013-04-15 04:34:00,32.0,-99.9,30.41,South,171,2.0,3.0,-999,-99.99,,,-99.99,,2013-04-15 12:34:00,
2013-04-15 05:05:00,32.0,-99.9,30.40,NE,35,2.0,3.0,-999,-99.99,,,-99.99,,2013-04-15 13:05:00,
2013-04-15 05:13:00,-999.0,-99.9,30.40,NE,55,1.0,2.0,-999,-99.99,,,-99.99,,2013-04-15 13:13:00,
2013-04-15 05:24:00,-999.0,-99.9,30.40,ESE,108,0.0,1.0,-999,-99.99,,,-99.99,,2013-04-15 13:24:00,
2013-04-15 06:05:00,31.0,-99.9,30.39,SE,136,2.0,2.0,-999,-99.99,,,-99.99,,2013-04-15 14:05:00,
2013-04-15 06:55:00,-999.0,-99.9,-100.00,ESE,122,2.0,3.0,-999,-99.99,,,-99.99,,2013-04-15 14:55:00,
2013-04-15 07:04:00,31.0,-99.9,30.37,SSE,166,3.0,4.0,-999,-99.99,,,-99.99,,2013-04-15 15:04:00,
2013-04-15 07:13:00,-999.0,-99.9,30.37,SSE,155,2.0,3.0,-999,-99.99,,,-99.99,,2013-04-15 15:13:00,
2013-04-15 07:25:00,-999.0,-99.9,30.37,SSE,153,4.0,5.0,-999,-99.99,,,-99.99,,2013-04-15 15:25:00,
2013-04-15 07:37:00,32.0,-99.9,30.37,SSE,156,3.0,5.0,-999,-99.99,,,-99.99,,2013-04-15 15:37:00,
2013-04-15 07:45:00,-999.0,-99.9,30.37,SE,140,2.0,3.0,-999,-99.99,,,-99.99,,2013-04-15 15:45:00,
2013-04-15 07:55:00,-999.0,-99.9,30.36,South,178,2.0,3.0,-999,-99.99,,,-99.99,,2013-04-15 15:55:00,
2013-04-15 08:05:00,-999.0,-99.9,30.36,SSE,151,2.0,3.0,-999,-99.99,,,-99.99,,2013-04-15 16:05:00,
2013-04-15 08:14:00,-999.0,-99.9,30.36,SSE,152,1.0,2.0,-999,-99.99,,,-99.99,,2013-04-15 16:14:00,
2013-04-15 08:25:00,-999.0,-99.9,30.36,South,170,4.0,5.0,-999,-99.99,,,-99.99,,2013-04-15 16:25:00,
2013-04-15 08:34:00,31.0,-99.9,30.36,SSE,161,4.0,5.0,-999,-99.99,,,-99.99,,2013-04-15 16:34:00,
2013-04-15 08:45:00,-999.0,-99.9,30.36,South,177,2.0,4.0,-999,-99.99,,,-99.99,,2013-04-15 16:45:00,
2013-04-15 08:54:00,-999.0,-99.9,30.36,South,177,2.0,4.0,-999,-99.99,,,-99.99,,2013-04-15 16:54:00,
2013-04-15 09:04:00,33.0,-99.9,30.35,South,178,2.0,3.0,-999,-99.99,,,-99.99,,2013-04-15 17:04:00,
2013-04-15 09:15:00,32.0,-99.9,30.35,SE,142,3.0,3.0,-999,-99.99,,,-99.99,,2013-04-15 17:15:00,
2013-04-15 09:22:00,34.0,-99.9,30.35,SSE,162,2.0,2.0,-999,-99.99,,,-99.99,,2013-04-15 17:22:00,
2013-04-15 09:33:00,34.0,-99.9,30.34,SW,215,2.0,2.0,-999,-99.99,,,-99.99,,2013-04-15 17:33:00,
2013-04-15 09:43:00,33.0,-99.9,30.35,SSE,168,2.0,4.0,-999,-99.99,,,-99.99,,2013-04-15 17:43:00,
2013-04-15 09:53:00,34.0,-99.9,30.35,South,185,1.0,3.0,-999,-99.99,,,-99.99,,2013-04-15 17:53:00,
2013-04-15 10:04:00,35.0,-99.9,30.35,SW,221,1.0,3.0,-999,-99.99,,,-99.99,,2013-04-15 18:04:00,
2013-04-15 10:13:00,38.0,-99.9,30.35,ESE,107,-999.0,1.0,-999,-99.99,,,-99.99,,2013-04-15 18:13:00,
2013-04-15 10:24:00,37.0,-99.9,30.34,NNW,336,2.0,3.0,-999,-99.99,,,-99.99,,2013-04-15 18:24:00,
2013-04-15 10:33:00,38.0,-99.9,30.34,NNW,335,1.0,2.0,-999,-99.99,,,-99.99,,2013-04-15 18:33:00,
2013-04-15 10:42:00,40.0,-99.9,30.34,ENE,66,1.0,2.0,-999,-99.99,,,-99.99,,2013-04-15 18:42:00,
2013-04-15 10:52:00,40.0,-99.9,30.33,NW,323,2.0,4.0,-999,-99.99,,,-99.99,,2013-04-15 18:52:00,
2013-04-15 11:02:00,41.0,-99.9,30.33,NNE,23,2.0,4.0,-999,-99.99,,,-99.99,,2013-04-15 19:02:00,
2013-04-15 11:12:00,41.0,-99.9,30.33,North,356,2.0,4.0,-999,-99.99,,,-99.99,,2013-04-15 19:12:00,
2013-04-15 11:22:00,39.0,-99.9,30.33,North,7,3.0,7.0,-999,-99.99,,,-99.99,,2013-04-15 19:22:00,
2013-04-15 11:39:00,39.0,-99.9,30.32,NNE,25,4.0,6.0,-999,-99.99,,,-99.99,,2013-04-15 19:39:00,
2013-04-15 11:59:00,39.0,-99.9,30.32,NE,41,3.0,5.0,-999,-99.99,,,-99.99,,2013-04-15 19:59:00,
2013-04-15 12:02:00,39.0,-99.9,30.32,SE,131,2.0,4.0,-999,-99.99,,,-99.99,,2013-04-15 20:02:00,
2013-04-15 12:12:00,40.0,-99.9,30.32,ESE,103,1.0,4.0,-999,-99.99,,,-99.99,,2013-04-15 20:12:00,
2013-04-15 12:22:00,39.0,-99.9,30.32,NNE,24,4.0,5.0,-999,-99.99,,,-99.99,,2013-04-15 20:22:00,
2013-04-15 12:32:00,40.0,-99.9,30.32,North,11,3.0,5.0,-999,-99.99,,,-99.99,,2013-04-15 20:32:00,
2013-04-15 12:42:00,41.0,-99.9,30.32,East,81,1.0,5.0,-999,-99.99,,,-99.99,,2013-04-15 20:42:00,
2013-04-15 12:52:00,41.0,-99.9,30.32,North,357,3.0,6.0,-999,-99.99,,,-99.99,,2013-04-15 20:52:00,
2013-04-15 13:02:00,41.0,-99.9,30.32,NNW,346,2.0,6.0,-999,-99.99,,,-99.99,,2013-04-15 21:02:00,
2013-04-15 13:12:00,41.0,-99.9,30.32,North,350,3.0,7.0,-999,-99.99,,,-99.99,,2013-04-15 21:12:00,
2013-04-15 13:22:00,40.0,-99.9,30.32,North,10,8.0,10.0,-999,-99.99,,,-99.99,,2013-04-15 21:22:00,
2013-04-15 13:33:00,40.0,-99.9,30.32,NNE,29,7.0,10.0,-999,-99.99,,,-99.99,,2013-04-15 21:33:00,
2013-04-15 13:43:00,40.0,-99.9,30.32,NNE,25,4.0,9.0,-999,-99.99,,,-99.99,,2013-04-15 21:43:00,
2013-04-15 13:53:00,40.0,-99.9,30.32,NNE,21,5.0,9.0,-999,-99.99,,,-99.99,,2013-04-15 21:53:00,
2013-04-15 14:02:00,40.0,-99.9,30.32,NNE,19,5.0,9.0,-999,-99.99,,,-99.99,,2013-04-15 22:02:00,
2013-04-15 14:13:00,40.0,-99.9,30.32,NNE,26,6.0,11.0,-999,-99.99,,,-99.99,,2013-04-15 22:13:00,
2013-04-15 14:23:00,40.0,-99.9,30.31,NNE,16,6.0,9.0,-999,-99.99,,,-99.99,,2013-04-15 22:23:00,
2013-04-15 14:33:00,40.0,-99.9,30.31,NNE,24,5.0,8.0,-999,-99.99,,,-99.99,,2013-04-15 22:33:00,
2013-04-15 14:42:00,39.0,-99.9,30.31,NNE,24,7.0,11.0,-999,-99.99,,,-99.99,,2013-04-15 22:42:00,
2013-04-15 14:52:00,39.0,-99.9,30.31,NNE,20,9.0,12.0,-999,-99.99,,,-99.99,,2013-04-15 22:52:00,
2013-04-15 15:02:00,39.0,-99.9,30.31,NNE,20,9.0,13.0,-999,-99.99,,,-99.99,,2013-04-15 23:02:00,
2013-04-15 15:12:00,39.0,-99.9,30.31,NNE,16,9.0,12.0,-999,-99.99,,,-99.99,,2013-04-15 23:12:00,
2013-04-15 15:22:00,39.0,-99.9,30.31,NNE,21,8.0,14.0,-999,-99.99,,,-99.99,,2013-04-15 23:22:00,
2013-04-15 15:32:00,38.0,-99.9,30.30,NNE,20,10.0,14.0,-999,-99.99,,,-99.99,,2013-04-15 23:32:00,
2013-04-15 15:42:00,39.0,-99.9,30.30,NNE,22,7.0,13.0,-999,-99.99,,,-99.99,,2013-04-15 23:42:00,
2013-04-15 15:52:00,39.0,-99.9,30.30,NNE,20,10.0,14.0,-999,-99.99,,,-99.99,,2013-04-15 23:52:00,
2013-04-15 16:03:00,38.0,-99.9,30.30,NNE,30,11.0,16.0,-999,-99.99,,,-99.99,,2013-04-16 00:03:00,
2013-04-15 16:12:00,38.0,-99.9,30.30,NNE,30,11.0,16.0,-999,-99.99,,,-99.99,,2013-04-16 00:12:00,
2013-04-15 16:22:00,38.0,-99.9,30.30,NNE,30,11.0,16.0,-999,-99.99,,,-99.99,,2013-04-16 00:22:00,
2013-04-15 16:32:00,38.0,-99.9,30.30,NNE,30,11.0,16.0,-999,-99.99,,,-99.99,,2013-04-16 00:32:00,
2013-04-15 16:42:00,38.0,-99.9,30.29,NNE,29,9.0,13.0,-999,-99.99,,,-99.99,,2013-04-16 00:42:00,
2013-04-15 16:52:00,38.0,-99.9,30.29,North,7,5.0,9.0,-999,-99.99,,,-99.99,,2013-04-16 00:52:00,
2013-04-15 17:02:00,38.0,-99.9,30.29,North,9,7.0,12.0,-999,-99.99,,,-99.99,,2013-04-16 01:02:00,
2013-04-15 17:12:00,38.0,-99.9,30.28,North,4,8.0,13.0,-999,-99.99,,,-99.99,,2013-04-16 01:12:00,
2013-04-15 17:22:00,38.0,-99.9,30.28,North,3,9.0,13.0,-999,-99.99,,,-99.99,,2013-04-16 01:22:00,
2013-04-15 17:32:00,38.0,-99.9,30.27,North,2,10.0,14.0,-999,-99.99,,,-99.99,,2013-04-16 01:32:00,
2013-04-15 17:42:00,38.0,-99.9,30.27,NNE,13,6.0,12.0,-999,-99.99,,,-99.99,,2013-04-16 01:42:00,
2013-04-15 17:52:00,38.0,-99.9,30.27,NNE,12,7.0,11.0,-999,-99.99,,,-99.99,,2013-04-16 01:52:00,
2013-04-15 18:02:00,38.0,-99.9,30.27,NNE,12,6.0,12.0,-999,-99.99,,,-99.99,,2013-04-16 02:02:00,
2013-04-15 18:12:00,38.0,-99.9,30.26,North,4,9.0,13.0,-999,-99.99,,,-99.99,,2013-04-16 02:12:00,
2013-04-15 18:22:00,38.0,-99.9,30.26,North,8,8.0,12.0,-999,-99.99,,,-99.99,,2013-04-16 02:22:00,
2013-04-15 18:32:00,38.0,-99.9,30.26,North,360,9.0,12.0,-999,-99.99,,,-99.99,,2013-04-16 02:32:00,
2013-04-15 18:42:00,37.0,-99.9,30.26,NNE,14,8.0,12.0,-999,-99.99,,,-99.99,,2013-04-16 02:42:00,
2013-04-15 18:52:00,37.0,-99.9,30.26,North,5,7.0,11.0,-999,-99.99,,,-99.99,,2013-04-16 02:52:00,
2013-04-15 19:02:00,38.0,-99.9,30.26,North,8,8.0,9.0,-999,-99.99,,,-99.99,,2013-04-16 03:02:00,
2013-04-15 19:12:00,37.0,-99.9,30.27,North,3,7.0,10.0,-999,-99.99,,,-99.99,,2013-04-16 03:12:00,
2013-04-15 19:22:00,37.0,-99.9,30.26,North,1,10.0,13.0,-999,-99.99,,,-99.99,,2013-04-16 03:22:00,
2013-04-15 19:33:00,37.0,-99.9,30.26,North,360,7.0,11.0,-999,-99.99,,,-99.99,,2013-04-16 03:33:00,
2013-04-15 19:43:00,37.0,-99.9,30.26,North,-999,8.0,11.0,-999,-99.99,,,-99.99,,2013-04-16 03:43:00,
2013-04-15 19:53:00,37.0,-99.9,30.25,North,4,7.0,11.0,-999,-99.99,,,-99.99,,2013-04-16 03:53:00,
2013-04-15 20:03:00,37.0,-99.9,30.25,North,5,8.0,13.0,-999,-99.99,,,-99.99,,2013-04-16 04:03:00,
2013-04-15 20:13:00,37.0,-99.9,30.25,North,4,7.0,10.0,-999,-99.99,,,-99.99,,2013-04-16 04:13:00,
2013-04-15 20:23:00,37.0,-99.9,30.24,North,6,6.0,11.0,-999,-99.99,,,-99.99,,2013-04-16 04:23:00,
2013-04-15 20:33:00,37.0,-99.9,30.24,NNE,17,9.0,11.0,-999,-99.99,,,-99.99,,2013-04-16 04:33:00,
2013-04-15 20:42:00,37.0,-99.9,30.24,North,9,5.0,8.0,-999,-99.99,,,-99.99,,2013-04-16 04:42:00,
2013-04-15 20:53:00,37.0,-99.9,30.24,North,10,7.0,9.0,-999,-99.99,,,-99.99,,2013-04-16 04:53:00,
2013-04-15 21:03:00,37.0,-99.9,30.24,NNE,15,7.0,10.0,-999,-99.99,,,-99.99,,2013-04-16 05:03:00,
2013-04-15 21:12:00,37.0,-99.9,30.24,NNE,12,6.0,9.0,-999,-99.99,,,-99.99,,2013-04-16 05:12:00,
2013-04-15 21:22:00,37.0,-99.9,30.24,North,9,5.0,9.0,-999,-99.99,,,-99.99,,2013-04-16 05:22:00,
2013-04-15 21:32:00,37.0,-99.9,30.24,North,9,5.0,9.0,-999,-99.99,,,-99.99,,2013-04-16 05:32:00,
2013-04-15 21:42:00,37.0,-99.9,30.23,North,6,9.0,12.0,-999,-99.99,,,-99.99,,2013-04-16 05:42:00,
2013-04-15 21:52:00,37.0,-99.9,30.24,North,359,6.0,11.0,-999,-99.99,,,-99.99,,2013-04-16 05:52:00,
2013-04-15 22:02:00,37.0,-99.9,30.24,North,357,8.0,12.0,-999,-99.99,,,-99.99,,2013-04-16 06:02:00,
2013-04-15 22:12:00,37.0,-99.9,30.24,North,360,6.0,9.0,-999,-99.99,,,-99.99,,2013-04-16 06:12:00,
2013-04-15 22:22:00,37.0,-99.9,30.24,North,349,3.0,8.0,-999,-99.99,,,-99.99,,2013-04-16 06:22:00,
2013-04-15 22:32:00,37.0,-99.9,30.23,NNW,344,5.0,9.0,-999,-99.99,,,-99.99,,2013-04-16 06:32:00,
2013-04-15 22:42:00,37.0,-99.9,30.23,NNW,343,5.0,8.0,-999,-99.99,,,-99.99,,2013-04-16 06:42:00,
2013-04-15 22:52:00,37.0,-99.9,30.23,NNW,336,6.0,10.0,-999,-99.99,,,-99.99,,2013-04-16 06:52:00,
2013-04-15 23:02:00,36.0,-99.9,30.23,NNW,333,5.0,9.0,-999,-99.99,,,-99.99,,2013-04-16 07:02:00,
2013-04-15 23:12:00,36.0,-99.9,30.23,NNW,328,5.0,7.0,-999,-99.99,,,-99.99,,2013-04-16 07:12:00,
2013-04-15 23:22:00,36.0,-99.9,30.23,NW,326,6.0,8.0,-999,-99.99,,,-99.99,,2013-04-16 07:22:00,
2013-04-15 23:32:00,36.0,-99.9,30.22,NNW,327,6.0,8.0,-999,-99.99,,,-99.99,,2013-04-16 07:32:00,
2013-04-15 23:42:00,36.0,-99.9,30.22,NW,322,7.0,8.0,-999,-99.99,,,-99.99,,2013-04-16 07:42:00,
2013-04-15 23:53:00,36.0,-99.9,30.22,NNW,331,5.0,8.0,-999,-99.99,,,-99.99,,2013-04-16 07:53:00,